Temp
3 3 3 3 2 2 2 2 2 2 2 2 2 2 2 2 2 2 3 3 3 3 3 3 3 3 3 3 3 2 2 2 2 2 2 2 2 1 1 1 1 1 1 1 1 1 1 1 1 1 1 1 1 1 1 1 1 1 1 1 2 2 2 2 2 2 2 2 3 3 3 3 3 3 3 3 3 3 3 3 3 3 3 3 3 3
2 2 2 2 2 2 2 2 1 1 2 2 2 2 2 2 2 2 2 2 2 2 2 2 2 2 2 2 2 2 2 2 2 2 2 2 1 1 1 1 1 1 1 1 1 1 0 0 0 1 1 1 1 1 1 1 1 1 1 1 1 1 2 2 2 2 2 2 3 3 3 3 3 3 3 2 2 3 3 3 3 3 3 3 3 3
1 1 1 1 1 1 1 1 1 1 1 1 1 1 1 2 2 2 2 2 2 2 2 2 2 2 2 2 2 2 2 2 2 2 2 1 1 1 0 0 0 0 0 1 0 0 0 0 0 0 0 0 0 0 0 0 1 1 1 1 1 1 1 2 2 2 2 2 2 3 2 2 2 2 2 2 2 2 2 2 3 3 3 3 3 3
1 1 1 1 1 1 1 1 1 1 1 1 1 1 1 1 1 1 1 1 1 1 1 1 1 1 1 1 1 1 1 1 1 1 1 1 0 0 0 -0 0 0 0 0 0 0 0 0 0 0 0 0 0 0 0 0 1 1 1 1 1 2 2 2 2 2 2 2 2 2 2 2 2 2 2 2 2 2 2 2 2 2 3 3 3 3
0 0 0 0 0 0 1 1 1 1 1 1 1 0 0 0 0 0 1 1 1 1 1 1 1 1 1 1 1 1 1 1 1 0 0 0 -0 0 0 0 0 0 0 0 0 0 0 0 -0 -0 -0 0 0 0 1 1 1 1 1 1 2 2 2 2 2 2 2 2 2 2 2 2 2 2 2 2 2 2 2 2 2 2 2 2 2 3
0 0 0 0 0 0 0 0 0 1 1 1 0 0 0 0 0 0 0 0 0 0 0 0 0 1 0 0 0 0 0 0 -0 -1 -0 -0 -0 -0 0 0 0 0 0 0 0 0 0 0 0 0 0 0 0 1 1 1 1 1 1 1 1 1 1 1 1 1 1 1 2 2 1 1 1 1 1 1 2 2 2 2 2 2 2 2 2 2
-0 0 0 0 0 0 0 0 0 0 1 1 0 0 0 0 0 0 0 0 0 0 0 0 0 0 0 0 0 0 0 -0 -0 -0 -0 -0 -0 -0 -0 -0 0 0 0 0 0 0 0 0 0 0 0 0 0 0 0 1 1 1 1 1 1 1 1 1 1 1 1 1 1 1 1 1 1 1 1 1 1 1 1 1 1 2 2 2 2 2
0 0 0 -0 -0 -0 0 0 0 0 0 1 0 0 0 0 0 0 0 0 0 0 0 0 -0 -0 -0 -0 -0 -0 -0 -0 -0 -0 -0 -0 -0 -0 -0 -0 -0 -0 -0 -0 -0 -0 -0 -0 -0 -0 -0 -0 -0 0 0 0 0 0 0 0 0 0 0 1 1 1 1 1 1 1 1 1 1 1 1 1 1 1 1 1 1 1 2 2 2 2
-0 -0 -0 -0 -0 -0 -0 0 0 0 0 0 0 0 0 0 -0 -0 -0 -0 -0 -0 -0 -0 -0 -0 -0 -0 -0 -0 -0 -0 -0 -0 -0 -0 -0 -0 -0 -0 -0 -0 -0 -0 -0 -0 -0 -0 -0 -0 -0 -0 -0 -0 -0 -0 -0 -0 -0 -0 0 0 0 0 0 0 0 0 0 0 0 1 1 1 1 1 1 1 1 1 1 1 1 1 2 2
-1 -0 -0 -0 -0 -0 -0 -0 -0 0 0 0 0 0 0 0 -0 -0 -0 -0 -0 -0 -0 -0 -0 -0 -0 -0 -0 -0 -0 -0 -0 -1 -1 -1 -0 -0 -0 -0 -0 -0 -1 -1 -1 -1 -1 -0 -0 -1 -1 -1 -1 -1 -1 -1 -1 -0 -0 -0 -0 -0 -0 -0 -0 -0 -0 0 0 0 0 0 0 0 0 0 0 0 1 1 1 1 1 1 1 1
-1 -1 -0 -0 -0 -0 -0 -0 0 0 0 0 0 0 0 0 -0 -0 -0 0 -0 -0 -0 -0 -0 -0 -0 -0 -0 -0 -0 -0 -1 -1 -1 -1 -1 -1 -1 -1 -1 -1 -1 -1 -1 -1 -1 -1 -1 -1 -1 -1 -1 -1 -1 -1 -1 -1 -1 -1 -1 -1 -1 -1 -1 -0 -0 -0 -0 -0 -0 -0 0 0 0 0 0 0 0 0 1 1 1 1 1 1
-1 -1 -1 -0 -0 0 0 0 0 0 0 0 0 0 -0 -0 -0 -0 -0 -0 -0 -0 -0 -0 -0 -0 -0 -0 -0 -0 -0 -1 -1 -1 -1 -1 -1 -1 -1 -1 -1 -1 -1 -1 -1 -1 -1 -1 -1 -1 -1 -1 -1 -1 -1 -1 -1 -1 -1 -1 -1 -1 -1 -1 -1 -1 -1 -1 -0 -0 -0 -0 -0 0 0 0 0 0 0 0 0 0 1 1 1 1
-0 -0 -0 -0 0 -0 -0 0 0 0 0 0 -0 -1 -1 -1 -0 -0 -0 -0 -0 -0 -0 -0 -0 -0 -0 -0 -0 -0 -1 -1 -1 -1 -1 -1 -1 -1 -1 -1 -1 -1 -1 -1 -1 -1 -1 -1 -1 -1 -1 -1 -1 -1 -1 -1 -1 -1 -1 -1 -1 -1 -1 -1 -1 -1 -1 -1 -1 -1 -0 -0 -0 -0 -0 0 0 0 0 0 0 0 0 1 1 1
-0 0 0 -0 -0 -0 -0 -0 -0 -0 -0 -0 -0 -1 -1 -1 -0 -0 -0 -0 -0 -0 -0 -0 -0 -0 -0 -0 -1 -1 -1 -1 -1 -1 -1 -1 -1 -1 -1 -1 -1 -1 -1 -1 -1 -1 -1 -1 -1 -1 -1 -1 -1 -1 -1 -1 -1 -1 -1 -1 -1 -1 -1 -1 -1 -1 -1 -1 -1 -1 -1 -0 -0 -0 -0 -0 -0 0 0 0 0 0 0 0 1 1
-0 -0 -0 -1 -1 -1 -0 -0 -0 -1 -0 -0 -0 -0 -1 -1 -1 -1 -0 -1 -1 -1 -1 -1 -1 -1 -1 -1 -1 -1 -1 -1 -1 -2 -1 -1 -1 -1 -1 -1 -1 -1 -1 -1 -1 -1 -1 -1 -1 -1 -1 -1 -1 -1 -1 -2 -2 -2 -1 -1 -1 -1 -2 -1 -1 -1 -1 -1 -1 -1 -1 -1 -0 -0 -0 -0 -0 -0 0 0 0 0 0 0 0 1
-0 -1 -1 -1 -1 -1 -1 -1 -1 -1 -1 -1 -1 -1 -1 -1 -1 -1 -1 -1 -1 -1 -1 -1 -1 -1 -1 -1 -1 -1 -1 -2 -2 -2 -2 -1 -1 -1 -2 -2 -2 -2 -2 -2 -2 -2 -2 -2 -2 -2 -2 -2 -2 -2 -2 -2 -2 -2 -2 -2 -2 -2 -2 -2 -1 -1 -1 -1 -1 -1 -1 -1 -1 -0 -0 -0 -0 -0 -0 0 0 0 0 0 0 0
-1 -1 -1 -1 -1 -1 -1 -1 -1 -1 -1 -1 -1 -1 -1 -1 -1 -1 -1 -2 -2 -2 -2 -2 -2 -1 -1 -1 -1 -2 -2 -2 -2 -2 -2 -2 -2 -2 -2 -2 -2 -2 -2 -2 -2 -2 -3 -3 -3 -3 -3 -3 -3 -3 -3 -3 -3 -3 -2 -2 -2 -2 -2 -2 -2 -1 -1 -1 -1 -1 -1 -1 -1 -1 -0 -0 -0 -0 -0 -0 0 0 0 0 0 0
-1 -1 -1 -1 -1 -2 -2 -2 -2 -2 -2 -2 -2 -2 -2 -2 -2 -2 -2 -2 -2 -2 -2 -2 -2 -2 -2 -1 -2 -2 -2 -2 -2 -3 -3 -3 -3 -2 -2 -3 -3 -3 -3 -3 -3 -3 -3 -3 -3 -3 -3 -3 -3 -3 -3 -3 -3 -3 -3 -3 -3 -2 -2 -2 -2 -2 -1 -1 -1 -1 -1 -1 -1 -1 -1 -0 -0 -0 -0 -0 -0 0 0 0 0 0
-1 -1 -1 -2 -2 -2 -2 -2 -2 -2 -2 -2 -2 -2 -2 -2 -2 -2 -2 -3 -3 -3 -3 -3 -3 -3 -3 -2 -2 -3 -3 -3 -3 -3 -4 -3 -3 -3 -3 -3 -3 -4 -4 -4 -4 -4 -4 -4 -4 -4 -3 -3 -3 -3 -3 -3 -3 -3 -3 -3 -3 -3 -2 -2 -2 -2 -2 -2 -1 -1 -1 -1 -1 -1 -1 -1 -0 -0 -0 -0 -0 -0 -0 0 0 0
-2 -2 -2 -2 -2 -2 -2 -2 -2 -2 -3 -3 -3 -3 -3 -3 -3 -3 -3 -3 -3 -3 -3 -3 -3 -3 -3 -3 -3 -3 -3 -3 -4 -4 -4 -4 -4 -4 -4 -4 -4 -4 -4 -4 -4 -4 -4 -4 -4 -4 -3 -3 -3 -3 -3 -3 -3 -3 -3 -3 -3 -3 -3 -3 -2 -2 -2 -2 -2 -1 -1 -1 -1 -1 -1 -1 -1 -1 -0 -0 -0 -0 -0 -0 -0 -0
-2 -2 -2 -2 -2 -2 -2 -3 -3 -3 -3 -3 -3 -3 -3 -3 -3 -3 -3 -3 -3 -3 -3 -3 -3 -3 -3 -3 -3 -4 -4 -4 -4 -4 -4 -4 -4 -4 -4 -4 -4 -5 -5 -4 -4 -4 -4 -4 -4 -4 -3 -3 -3 -3 -3 -3 -3 -3 -3 -3 -3 -3 -3 -3 -2 -2 -2 -2 -2 -2 -1 -1 -1 -1 -1 -1 -1 -1 -1 -0 -0 -0 -0 -0 -0 -0
-2 -2 -2 -2 -2 -2 -3 -3 -3 -3 -3 -3 -3 -3 -3 -3 -3 -3 -3 -3 -4 -4 -4 -4 -4 -4 -4 -4 -4 -4 -4 -4 -4 -4 -5 -4 -4 -4 -4 -5 -5 -5 -5 -5 -4 -4 -4 -4 -4 -3 -3 -3 -3 -3 -3 -3 -3 -3 -3 -3 -3 -3 -3 -3 -2 -2 -2 -2 -2 -2 -1 -1 -1 -1 -1 -1 -1 -1 -1 -1 -1 -0 -0 -0 -0 -0
-2 -2 -2 -2 -3 -3 -3 -3 -3 -3 -3 -3 -3 -3 -3 -3 -3 -4 -4 -4 -4 -4 -4 -4 -4 -4 -4 -4 -4 -4 -4 -4 -4 -5 -5 -5 -4 -4 -5 -5 -5 -5 -5 -5 -5 -5 -4 -4 -4 -3 -3 -3 -3 -3 -3 -3 -3 -3 -3 -3 -3 -3 -3 -3 -2 -2 -2 -2 -2 -2 -2 -1 -1 -1 -1 -1 -1 -1 -1 -1 -1 -1 -1 -1 -1 -1
-2 -3 -3 -3 -3 -3 -3 -3 -3 -3 -3 -3 -3 -3 -4 -4 -4 -4 -4 -4 -4 -4 -4 -4 -4 -4 -4 -4 -4 -4 -4 -4 -4 -5 -5 -5 -5 -5 -5 -5 -6 -6 -5 -5 -5 -5 -5 -4 -3 -3 -3 -4 -4 -3 -3 -3 -3 -3 -3 -3 -3 -3 -3 -2 -2 -2 -2 -2 -2 -2 -2 -1 -1 -1 -1 -1 -1 -1 -1 -1 -1 -1 -1 -1 -1 -1
-3 -3 -3 -3 -3 -3 -3 -3 -3 -4 -3 -4 -4 -4 -4 -4 -4 -4 -4 -4 -4 -4 -4 -4 -4 -4 -4 -4 -4 -4 -4 -4 -5 -5 -5 -5 -5 -5 -5 -6 -6 -6 -6 -6 -6 -5 -5 -4 -4 -4 -4 -4 -4 -4 -4 -4 -4 -4 -4 -3 -3 -3 -3 -3 -2 -2 -2 -2 -2 -2 -2 -2 -2 -2 -2 -2 -2 -2 -2 -2 -2 -2 -2 -2 -1 -1
-3 -3 -3 -3 -3 -4 -4 -4 -4 -4 -4 -4 -4 -4 -4 -4 -4 -4 -4 -4 -4 -4 -4 -4 -3 -3 -3 -3 -4 -4 -4 -5 -5 -5 -5 -5 -5 -5 -5 -6 -6 -6 -6 -6 -6 -6 -5 -5 -4 -4 -4 -4 -5 -5 -4 -4 -4 -4 -4 -4 -4 -3 -3 -3 -3 -3 -3 -3 -3 -3 -3 -3 -3 -2 -2 -2 -2 -2 -2 -2 -2 -2 -2 -2 -2 -2
-4 -4 -4 -4 -4 -4 -4 -4 -4 -4 -4 -4 -4 -4 -4 -4 -4 -5 -4 -4 -4 -4 -4 -4 -3 -3 -3 -3 -3 -4 -4 -5 -5 -5 -5 -5 -5 -5 -5 -6 -6 -6 -6 -6 -6 -6 -5 -5 -5 -5 -5 -5 -5 -5 -5 -5 -4 -4 -4 -4 -4 -4 -4 -4 -4 -4 -4 -3 -3 -3 -3 -3 -3 -3 -3 -3 -3 -2 -2 -2 -2 -2 -2 -2 -2 -2
-4 -4 -4 -4 -4 -4 -4 -4 -4 -4 -4 -4 -4 -4 -4 -5 -5 -5 -5 -4 -5 -5 -4 -4 -4 -3 -3 -3 -4 -4 -4 -4 -4 -5 -5 -5 -5 -5 -5 -6 -6 -6 -6 -6 -6 -6 -5 -5 -5 -5 -5 -5 -5 -5 -5 -5 -4 -4 -4 -4 -4 -4 -4 -4 -4 -4 -4 -4 -4 -3 -3 -3 -3 -3 -3 -3 -3 -3 -3 -3 -2 -2 -2 -2 -2 -2
-4 -4 -4 -4 -4 -4 -4 -5 -5 -5 -5 -4 -4 -4 -5 -5 -5 -5 -5 -5 -5 -5 -5 -5 -4 -4 -4 -4 -4 -4 -4 -4 -4 -5 -5 -5 -5 -6 -6 -6 -6 -6 -6 -6 -5 -5 -5 -5 -5 -4 -4 -4 -4 -4 -4 -4 -4 -4 -4 -4 -4 -4 -4 -4 -4 -4 -3 -3 -3 -3 -3 -3 -3 -3 -3 -3 -3 -3 -3 -3 -3 -3 -3 -3 -3 -2
-4 -4 -4 -5 -5 -5 -5 -5 -5 -5 -5 -5 -5 -5 -5 -5 -5 -5 -5 -5 -5 -6 -5 -5 -5 -5 -5 -5 -4 -4 -4 -4 -4 -5 -5 -5 -5 -5 -6 -6 -6 -6 -6 -6 -5 -4 -4 -5 -5 -5 -4 -4 -4 -4 -4 -4 -4 -4 -4 -3 -3 -3 -3 -3 -3 -3 -3 -3 -3 -3 -4 -4 -4 -4 -4 -4 -3 -3 -3 -3 -3 -3 -3 -3 -3 -3
-5 -5 -5 -5 -5 -5 -5 -5 -5 -5 -5 -5 -5 -5 -5 -5 -4 -5 -5 -5 -5 -6 -6 -6 -5 -5 -5 -5 -4 -4 -4 -4 -5 -5 -5 -6 -5 -5 -5 -5 -5 -5 -6 -6 -5 -4 -4 -5 -5 -5 -5 -5 -5 -5 -4 -4 -4 -4 -4 -4 -4 -4 -4 -4 -4 -4 -4 -4 -4 -4 -4 -4 -4 -4 -4 -4 -4 -4 -4 -4 -4 -4 -3 -3 -3 -3
-5 -5 -5 -5 -5 -5 -5 -5 -5 -5 -5 -5 -5 -5 -5 -5 -5 -5 -5 -5 -5 -5 -5 -5 -5 -5 -5 -5 -5 -4 -4 -4 -5 -5 -5 -6 -6 -5 -6 -5 -5 -5 -5 -6 -6 -5 -5 -5 -5 -5 -5 -5 -6 -6 -5 -5 -5 -5 -5 -5 -4 -4 -4 -4 -4 -4 -4 -4 -4 -4 -4 -4 -4 -4 -4 -4 -4 -4 -4 -4 -4 -4 -4 -4 -4 -4
-5 -5 -5 -5 -5 -5 -5 -5 -5 -5 -5 -5 -5 -5 -5 -5 -5 -5 -5 -5 -5 -5 -5 -5 -5 -5 -5 -5 -5 -5 -4 -5 -5 -5 -5 -6 -6 -6 -6 -5 -5 -5 -6 -6 -6 -6 -6 -5 -5 -5 -5 -5 -5 -6 -6 -6 -6 -5 -5 -5 -5 -5 -4 -4 -4 -4 -4 -4 -4 -4 -4 -3 -3 -3 -4 -4 -4 -4 -4 -4 -4 -4 -4 -4 -4 -4
-5 -5 -5 -5 -5 -5 -5 -5 -5 -5 -5 -5 -5 -5 -5 -5 -6 -6 -5 -5 -5 -5 -5 -5 -5 -5 -5 -5 -5 -5 -5 -5 -5 -5 -6 -6 -6 -6 -6 -6 -6 -6 -6 -6 -6 -6 -6 -5 -5 -5 -5 -5 -5 -5 -6 -6 -6 -6 -6 -6 -6 -5 -5 -5 -5 -5 -5 -4 -4 -4 -4 -3 -3 -3 -4 -4 -4 -4 -4 -4 -4 -4 -4 -4 -4 -4
-5 -5 -5 -5 -5 -5 -5 -5 -5 -5 -5 -5 -6 -6 -6 -6 -6 -6 -6 -6 -6 -5 -5 -5 -5 -6 -6 -6 -6 -5 -5 -5 -5 -6 -6 -6 -6 -6 -6 -6 -6 -6 -6 -6 -6 -6 -6 -5 -5 -5 -5 -5 -5 -5 -5 -6 -6 -6 -6 -6 -6 -6 -5 -5 -5 -5 -5 -5 -4 -4 -4 -4 -4 -4 -4 -4 -4 -4 -4 -4 -4 -4 -5 -4 -4 -4
-5 -5 -5 -5 -6 -6 -5 -5 -5 -5 -6 -6 -6 -6 -6 -6 -6 -6 -6 -6 -6 -6 -6 -6 -6 -6 -6 -6 -6 -6 -6 -6 -6 -6 -6 -6 -6 -6 -6 -6 -6 -6 -6 -6 -6 -6 -6 -6 -6 -6 -6 -5 -5 -5 -5 -6 -6 -6 -6 -6 -6 -6 -5 -5 -5 -5 -5 -5 -5 -4 -4 -4 -4 -4 -4 -4 -4 -4 -4 -4 -5 -5 -5 -5 -4 -4
-5 -6 -6 -6 -6 -6 -6 -6 -6 -6 -6 -6 -6 -6 -6 -6 -6 -6 -6 -6 -6 -6 -6 -6 -6 -6 -6 -6 -7 -7 -6 -6 -6 -6 -6 -7 -7 -7 -7 -7 -7 -7 -6 -6 -6 -6 -6 -6 -6 -6 -6 -5 -5 -5 -5 -5 -6 -6 -6 -6 -6 -6 -6 -6 -5 -5 -5 -5 -5 -5 -5 -5 -5 -5 -4 -4 -4 -5 -4 -5 -5 -5 -5 -5 -5 -5
-6 -6 -6 -6 -6 -6 -6 -6 -6 -6 -6 -6 -6 -6 -6 -6 -6 -6 -6 -6 -6 -6 -6 -6 -6 -6 -6 -6 -7 -7 -7 -7 -7 -7 -7 -7 -7 -7 -7 -7 -7 -7 -7 -7 -7 -6 -6 -6 -6 -6 -6 -5 -5 -6 -6 -6 -6 -6 -6 -6 -6 -6 -6 -6 -6 -6 -6 -6 -6 -5 -5 -5 -5 -5 -5 -5 -5 -5 -5 -5 -5 -4 -4 -5 -5 -5
-6 -6 -6 -6 -6 -7 -7 -7 -7 -7 -7 -7 -7 -6 -6 -6 -6 -6 -7 -7 -7 -7 -7 -7 -7 -6 -6 -6 -6 -7 -7 -7 -7 -7 -7 -7 -7 -7 -7 -7 -7 -7 -7 -7 -7 -7 -7 -6 -6 -6 -6 -6 -6 -6 -6 -6 -6 -6 -6 -6 -6 -6 -6 -6 -6 -6 -6 -6 -6 -6 -6 -6 -6 -6 -6 -6 -6 -6 -5 -5 -5 -5 -5 -5 -5 -5
-6 -7 -7 -7 -7 -7 -7 -7 -7 -7 -7 -7 -7 -7 -7 -7 -7 -7 -7 -7 -7 -7 -7 -7 -7 -7 -7 -7 -7 -7 -7 -7 -7 -7 -7 -7 -7 -7 -7 -7 -7 -7 -7 -7 -7 -7 -7 -7 -7 -6 -6 -6 -6 -6 -6 -6 -6 -6 -6 -6 -6 -6 -5 -6 -6 -6 -6 -6 -6 -6 -6 -6 -6 -6 -6 -6 -6 -6 -6 -6 -6 -5 -5 -5 -5 -5
-7 -7 -7 -7 -7 -7 -7 -7 -7 -7 -7 -7 -7 -7 -7 -8 -8 -8 -8 -8 -8 -8 -8 -8 -8 -7 -7 -7 -7 -7 -7 -7 -7 -7 -7 -7 -7 -7 -7 -7 -7 -7 -7 -7 -7 -7 -7 -7 -7 -7 -6 -6 -6 -6 -6 -6 -6 -6 -6 -6 -6 -6 -6 -6 -6 -6 -6 -6 -6 -6 -6 -6 -6 -6 -6 -6 -6 -6 -6 -6 -6 -6 -6 -6 -6 -6
-7 -7 -7 -7 -7 -7 -7 -7 -7 -7 -7 -8 -8 -8 -8 -8 -8 -8 -8 -8 -8 -8 -8 -8 -8 -7 -7 -7 -7 -7 -7 -7 -7 -7 -7 -7 -7 -7 -7 -7 -7 -7 -7 -7 -7 -7 -7 -7 -7 -7 -7 -6 -6 -6 -6 -6 -6 -6 -6 -6 -6 -6 -6 -6 -6 -6 -6 -6 -6 -6 -6 -6 -6 -6 -6 -6 -6 -6 -6 -6 -6 -6 -6 -6 -6 -6
-7 -7 -7 -7 -7 -7 -7 -7 -7 -7 -7 -8 -8 -8 -8 -8 -8 -8 -8 -8 -8 -7 -7 -7 -7 -7 -7 -7 -7 -7 -7 -7 -7 -7 -7 -7 -7 -7 -7 -7 -7 -7 -7 -7 -7 -7 -7 -7 -7 -7 -7 -7 -7 -6 -6 -6 -6 -6 -6 -6 -6 -6 -6 -5 -5 -5 -6 -6 -6 -6 -6 -6 -6 -6 -6 -6 -6 -6 -6 -6 -6 -6 -6 -6 -6 -6
-7 -7 -7 -7 -7 -7 -8 -7 -7 -7 -7 -8 -8 -8 -8 -8 -8 -8 -8 -8 -7 -7 -7 -7 -7 -7 -8 -7 -7 -7 -7 -7 -7 -7 -7 -7 -7 -7 -7 -7 -7 -7 -7 -7 -7 -7 -7 -7 -7 -7 -7 -7 -7 -7 -6 -6 -6 -6 -6 -6 -6 -6 -6 -5 -5 -6 -6 -6 -6 -6 -6 -6 -6 -6 -6 -6 -6 -6 -6 -6 -5 -6 -6 -6 -6 -6
-7 -7 -7 -7 -7 -7 -8 -8 -7 -7 -8 -8 -8 -8 -8 -8 -8 -8 -8 -7 -7 -7 -7 -7 -7 -7 -7 -7 -6 -6 -6 -6 -6 -6 -6 -6 -7 -7 -7 -7 -6 -7 -7 -7 -7 -7 -7 -7 -7 -7 -7 -7 -7 -6 -6 -6 -6 -6 -6 -6 -6 -6 -6 -6 -6 -6 -6 -6 -5 -5 -5 -6 -6 -6 -6 -6 -6 -5 -5 -5 -5 -5 -5 -5 -5 -5
-8 -8 -8 -8 -8 -8 -8 -8 -8 -8 -8 -8 -8 -8 -8 -8 -8 -8 -8 -7 -7 -7 -7 -7 -7 -7 -7 -7 -6 -6 -6 -6 -6 -6 -6 -6 -6 -6 -6 -6 -6 -6 -6 -6 -7 -7 -7 -7 -7 -7 -6 -6 -6 -6 -6 -6 -6 -6 -6 -6 -6 -6 -6 -6 -6 -6 -6 -6 -6 -5 -5 -6 -6 -6 -6 -6 -5 -5 -5 -5 -5 -5 -5 -5 -5 -5
-8 -8 -8 -8 -8 -8 -8 -8 -8 -8 -8 -8 -8 -8 -8 -8 -8 -8 -7 -7 -7 -7 -7 -7 -7 -7 -7 -7 -7 -6 -6 -6 -6 -6 -6 -6 -6 -6 -6 -6 -6 -6 -6 -6 -6 -7 -7 -7 -7 -7 -7 -6 -6 -6 -6 -6 -6 -6 -6 -6 -6 -6 -6 -6 -6 -6 -6 -6 -5 -5 -5 -6 -6 -6 -5 -5 -5 -5 -5 -5 -5 -5 -5 -5 -5 -5
-8 -8 -8 -8 -8 -8 -8 -8 -8 -8 -8 -8 -8 -8 -8 -8 -8 -8 -7 -7 -7 -7 -7 -7 -7 -7 -7 -7 -7 -7 -7 -7 -6 -6 -6 -6 -6 -6 -6 -6 -6 -6 -6 -6 -6 -6 -6 -6 -6 -7 -7 -7 -6 -6 -6 -6 -6 -6 -6 -6 -6 -6 -6 -6 -6 -6 -6 -5 -5 -5 -6 -6 -6 -5 -5 -5 -5 -5 -5 -5 -5 -5 -5 -5 -5 -5
-8 -8 -8 -8 -8 -9 -9 -8 -8 -8 -8 -8 -8 -8 -8 -8 -8 -8 -8 -8 -8 -8 -8 -8 -8 -7 -7 -7 -7 -7 -7 -7 -7 -7 -7 -6 -6 -7 -7 -7 -7 -6 -6 -6 -6 -6 -6 -6 -6 -6 -7 -7 -6 -6 -6 -6 -6 -6 -6 -6 -6 -6 -6 -6 -5 -5 -5 -5 -5 -5 -5 -6 -6 -5 -5 -5 -5 -5 -5 -5 -5 -4 -4 -5 -5 -5
-8 -8 -8 -8 -8 -9 -9 -9 -9 -9 -8 -8 -8 -8 -8 -8 -8 -8 -8 -8 -8 -8 -8 -8 -8 -8 -7 -7 -7 -7 -7 -7 -7 -7 -7 -6 -7 -7 -7 -7 -7 -7 -6 -6 -6 -6 -6 -6 -6 -6 -6 -6 -6 -6 -6 -6 -6 -6 -6 -6 -6 -6 -6 -5 -5 -5 -5 -5 -5 -5 -5 -6 -6 -6 -6 -5 -5 -5 -5 -5 -5 -4 -4 -4 -5 -5
-8 -8 -8 -8 -8 -8 -8 -8 -9 -9 -9 -8 -8 -8 -8 -8 -8 -8 -8 -8 -8 -8 -8 -8 -8 -8 -7 -7 -7 -7 -7 -7 -7 -7 -7 -7 -7 -7 -7 -7 -7 -6 -6 -6 -6 -6 -5 -5 -5 -5 -5 -5 -5 -6 -6 -6 -6 -6 -5 -5 -5 -5 -5 -5 -5 -5 -5 -5 -5 -5 -5 -6 -6 -6 -6 -5 -5 -5 -5 -4 -4 -4 -4 -4 -4 -4
Height
827 827 826 826 826 826 826 826 826 826 826 826 826 826 826 826 826 826 827 827 827 827 828 828 828 828 828 828 828 829 829 829 829 829 830 830 830 830 830 830 830 830 830 831 831 831 831 831 831 831 832 832 832 832 832 832 832 832 832 832 832 832 832 832 832 832 832 832 832 832 832 832 832 832 832 831 831 831 831 831 831 832 832 832 832 832
827 826 826 826 826 826 826 826 826 826 826 826 826 826 826 826 826 826 827 827 827 827 827 827 828 828 828 828 828 828 828 828 828 829 829 829 829 830 830 830 830 830 830 830 830 830 831 831 831 831 831 831 831 831 831 831 831 831 831 831 831 831 831 831 831 831 831 831 831 831 831 831 831 831 831 831 831 831 831 831 831 831 831 831 831 831
827 826 826 826 826 826 826 826 826 826 826 825 825 825 826 826 826 826 826 826 827 827 827 827 827 827 827 827 827 827 827 827 827 828 828 828 828 829 829 829 829 829 829 829 829 830 830 830 830 830 830 830 830 830 830 830 831 831 831 831 831 831 831 831 830 830 830 830 830 830 830 830 830 830 830 830 830 830 830 830 830 830 830 830 831 831
827 827 826 826 826 826 826 826 826 826 825 825 825 825 825 825 825 826 826 826 826 826 826 826 826 826 826 826 826 826 826 826 826 827 827 827 827 828 828 828 828 828 829 829 829 829 829 829 829 829 829 829 830 830 830 830 831 831 831 831 830 830 830 830 830 830 829 829 829 829 829 829 829 829 829 829 829 829 829 829 829 829 829 829 830 830
827 826 826 826 826 826 826 826 825 825 825 825 825 824 824 825 825 825 825 825 825 825 825 825 825 825 825 825 826 826 826 826 826 826 827 827 827 828 828 828 828 828 829 829 829 829 829 829 829 829 829 829 830 830 830 830 830 830 830 830 829 829 829 828 828 828 828 828 828 828 828 828 828 828 828 828 828 828 828 828 828 828 828 828 828 829
826 826 826 826 826 826 826 826 825 825 825 824 824 824 824 824 824 824 824 824 824 825 825 825 825 825 825 825 825 825 825 826 826 826 827 827 827 828 828 828 828 828 828 829 829 829 829 829 829 829 829 829 830 830 830 830 829 829 829 828 828 827 827 827 826 826 826 827 827 827 827 827 827 827 827 826 827 827 827 827 827 827 827 827 827 827
826 826 826 826 826 826 826 826 825 825 825 824 824 824 824 824 824 824 824 824 824 824 824 824 825 825 825 825 825 825 825 826 826 826 826 826 827 827 828 828 828 828 828 829 829 829 829 829 829 829 829 829 829 829 829 828 828 828 827 827 826 826 826 826 825 825 826 826 826 826 826 826 826 826 826 826 826 826 826 826 826 826 826 826 826 826
826 826 826 826 826 826 826 826 825 825 824 824 824 824 824 824 824 824 824 824 824 824 824 824 825 825 825 825 825 825 826 826 826 826 826 826 827 827 827 827 828 828 828 828 828 828 828 828 828 828 828 828 828 827 827 827 827 826 826 826 825 825 825 824 824 824 825 825 825 825 824 824 824 824 824 825 825 825 825 825 825 826 826 826 826 826
826 826 826 826 826 826 826 826 825 825 824 824 824 824 824 824 824 824 824 824 824 824 824 825 825 825 825 825 825 826 826 826 826 826 826 826 826 827 827 827 827 827 827 827 827 827 827 827 827 827 826 826 826 826 826 826 825 825 824 824 823 823 823 823 823 823 823 823 823 823 823 823 823 823 823 823 823 824 824 824 824 824 825 825 825 825
826 826 826 826 826 826 826 826 825 825 825 824 824 824 824 824 824 824 824 824 824 825 825 825 825 825 825 825 826 826 826 826 826 826 826 826 826 826 826 826 827 827 827 826 826 826 826 826 826 826 825 825 825 824 824 824 823 823 822 822 822 822 822 822 822 822 822 822 822 822 822 822 822 822 822 822 822 822 822 823 823 823 823 823 824 824
827 827 826 826 826 826 826 826 825 825 825 824 824 824 824 824 824 824 824 824 824 825 825 825 825 825 825 825 825 825 825 826 826 826 826 826 826 826 826 826 826 826 826 826 826 825 825 825 824 824 824 823 823 822 822 821 821 821 821 820 820 820 820 820 820 820 820 820 821 821 821 821 821 821 821 821 821 821 821 821 821 822 822 822 822 822
827 827 826 826 826 826 826 826 825 825 825 824 824 824 824 824 824 824 824 824 824 824 824 825 825 825 825 825 825 825 825 825 825 825 825 825 825 825 825 825 825 825 825 825 825 824 824 823 823 822 821 821 821 820 820 819 819 818 818 818 818 818 818 818 818 819 819 819 819 819 819 819 819 819 820 820 820 820 820 820 820 821 821 821 821 821
826 826 826 826 826 826 826 826 825 825 825 824 824 824 824 824 824 824 824 824 824 824 824 824 824 824 824 824 824 824 824 825 825 825 825 825 825 825 825 825 824 824 824 824 823 823 822 822 821 820 819 819 818 817 817 816 816 816 816 816 816 816 817 817 817 817 817 817 817 817 818 818 818 818 818 818 818 818 819 819 819 819 819 820 820 820
826 826 826 826 826 826 826 825 825 825 825 825 824 824 824 824 824 824 824 824 824 824 824 824 824 824 824 824 824 824 824 824 824 824 824 824 824 824 824 824 823 823 823 822 821 821 821 820 819 818 817 816 816 815 815 815 815 815 815 815 815 815 815 815 815 816 816 816 816 816 816 816 816 816 817 817 817 817 817 818 818 818 818 819 819 819
826 826 826 826 826 826 826 826 825 825 825 825 825 824 824 824 824 824 824 824 824 824 824 824 824 824 824 824 824 824 824 824 824 824 824 823 823 823 823 822 822 821 821 821 820 819 819 818 816 816 815 814 814 814 813 813 813 813 814 814 814 814 814 814 814 814 814 815 815 815 815 815 815 816 816 816 816 816 816 817 817 817 817 817 818 818
826 826 826 826 826 826 826 826 826 825 825 825 825 825 824 824 824 824 824 824 824 824 824 824 824 823 823 823 823 823 823 823 823 823 823 822 822 822 822 821 820 820 819 819 818 817 816 816 815 814 813 813 813 812 812 812 812 812 813 813 813 813 813 813 813 813 813 814 814 814 814 814 814 815 815 815 815 815 815 816 816 816 816 816 816 816
826 826 826 826 826 826 826 826 826 826 825 825 825 825 825 824 824 824 824 824 824 824 824 824 824 824 823 823 823 823 823 823 822 822 822 821 821 821 821 820 819 818 818 817 817 816 815 814 814 813 812 812 812 812 812 812 812 812 812 812 812 812 812 812 812 812 813 813 813 813 813 813 813 813 814 814 814 814 814 814 815 815 815 815 815 816
826 826 826 826 826 826 826 826 826 826 825 825 825 825 825 824 824 824 824 824 824 824 824 824 824 824 824 823 823 823 823 822 822 821 821 821 820 819 819 819 818 817 816 816 816 815 814 814 813 812 812 811 811 811 811 811 811 811 811 811 811 811 811 811 811 811 811 812 812 812 812 812 812 812 812 812 813 813 813 813 813 813 814 814 814 814
826 826 826 826 826 826 826 826 826 825 825 825 825 825 825 824 824 824 824 824 824 824 824 824 824 824 824 823 823 822 822 822 821 821 821 820 819 818 818 817 817 816 816 815 815 814 813 813 812 811 811 811 811 810 810 810 810 810 810 810 810 810 810 810 810 810 810 811 811 811 811 811 811 811 811 811 811 811 812 812 812 812 812 812 813 813
826 826 826 826 826 826 826 825 825 825 825 825 825 825 824 824 824 824 824 824 824 824 824 824 823 823 823 823 822 822 821 821 821 820 820 819 818 817 817 816 816 815 814 814 813 813 812 812 811 811 810 810 810 809 809 809 808 808 808 808 808 808 808 808 809 809 809 809 809 809 809 810 810 810 810 810 810 810 811 811 811 811 811 811 811 811
825 825 825 825 825 825 825 825 825 825 825 824 824 824 824 824 824 824 824 824 823 823 823 823 823 823 822 822 822 821 821 821 820 819 819 817 816 816 816 816 815 814 813 813 812 812 811 811 810 810 809 809 808 808 808 807 807 807 807 807 807 807 807 807 807 807 807 808 808 808 808 808 808 808 809 809 809 809 809 809 810 810 810 810 810 810
825 825 825 825 825 825 825 825 825 824 824 824 824 824 824 823 823 823 823 823 823 823 823 823 822 822 822 821 821 821 820 820 819 819 818 817 816 815 815 815 814 813 812 811 811 811 810 809 809 808 808 807 807 806 806 806 806 806 806 806 806 806 806 806 806 806 806 806 806 806 807 807 807 807 807 807 808 808 808 808 808 808 808 808 809 809
825 825 825 825 825 825 825 824 824 824 824 824 824 823 823 823 823 823 823 823 823 822 822 822 821 821 821 821 820 820 819 819 819 818 817 816 815 814 814 814 813 812 811 811 810 809 809 808 808 807 807 806 806 805 805 805 804 804 804 804 804 804 805 805 805 805 805 805 805 806 806 806 806 806 806 806 806 806 806 807 807 807 807 807 807 807
824 824 824 824 824 824 824 824 824 824 824 823 823 823 823 823 823 822 822 822 822 821 821 821 820 820 819 819 819 819 818 818 818 817 817 816 814 814 813 813 812 812 811 810 809 808 808 807 806 806 805 805 804 804 803 803 803 803 804 804 804 804 804 804 804 804 804 804 804 804 805 805 805 805 805 805 805 805 805 805 805 805 805 805 805 805
824 824 824 824 824 824 824 824 824 823 823 823 823 822 822 822 822 821 821 821 821 820 820 820 819 819 818 818 818 817 817 817 817 817 816 815 814 813 812 812 812 811 810 809 808 807 807 806 805 805 804 804 803 803 802 802 803 803 803 803 803 803 803 803 803 803 803 803 803 803 803 803 803 803 803 803 803 803 803 803 804 804 804 804 803 803
824 824 824 824 824 823 823 823 823 823 823 822 822 822 821 821 821 820 820 820 820 819 819 819 818 817 817 817 817 816 816 816 816 816 816 815 814 812 812 812 811 811 810 808 807 807 806 805 805 804 804 803 802 802 802 802 802 802 802 802 802 802 802 801 801 801 801 801 801 801 801 801 801 801 801 802 802 802 802 802 802 802 802 802 802 801
823 823 823 823 823 823 822 822 822 822 822 822 822 821 821 820 820 819 819 819 819 819 819 818 817 816 816 816 816 816 815 815 815 815 814 814 813 812 811 811 811 810 809 808 807 806 806 805 804 803 803 802 802 802 801 801 801 801 801 801 801 801 801 800 800 800 800 800 800 800 800 800 800 800 801 801 801 801 801 801 801 801 801 801 800 800
823 823 822 822 822 822 821 821 821 821 821 821 821 821 820 820 819 818 818 818 818 818 818 817 816 816 815 815 815 815 815 815 814 814 813 813 813 812 811 811 811 810 809 807 806 805 805 804 803 803 802 802 801 801 801 801 801 801 801 801 800 800 800 800 799 799 799 799 799 799 799 799 799 799 799 799 799 799 799 799 799 799 799 799 798 798
822 822 821 821 821 821 821 820 820 820 820 819 819 819 819 818 818 817 816 816 816 817 816 816 816 815 815 814 814 814 814 814 813 813 813 813 812 811 811 811 810 810 809 807 805 804 803 803 802 802 802 801 801 801 801 801 801 801 800 800 800 799 799 799 798 798 798 798 798 798 798 798 798 798 798 798 798 798 798 798 798 798 797 797 797 796
821 821 821 820 820 820 819 819 819 818 818 818 818 817 817 817 816 816 815 815 815 816 815 815 815 815 815 814 814 813 812 812 812 812 812 812 811 811 811 810 810 809 809 808 806 803 802 801 801 801 801 801 801 801 801 800 800 800 799 799 798 798 798 797 797 797 797 797 796 796 796 796 796 796 796 796 796 796 796 796 796 796 796 796 795 795
820 820 820 819 819 818 818 818 817 817 816 816 816 816 815 815 815 814 814 814 814 814 814 814 814 814 814 814 813 812 812 811 811 811 811 811 811 811 810 810 810 809 809 809 807 805 802 801 800 801 801 801 800 800 799 799 799 798 798 797 797 796 796 796 796 796 795 795 795 795 795 795 794 794 794 794 794 794 794 794 794 794 794 794 793 793
819 819 819 818 818 817 817 816 816 816 815 815 814 814 814 813 813 813 813 813 813 813 813 813 813 813 813 813 813 812 811 811 811 811 811 811 811 810 810 810 809 809 809 809 809 808 805 802 800 800 800 800 799 799 798 798 797 797 796 796 796 795 795 795 795 794 794 794 793 793 793 793 793 792 792 792 792 792 792 792 792 793 793 792 792 791
818 818 817 817 816 816 815 815 814 814 814 813 813 812 812 812 812 812 812 812 812 812 812 812 812 812 812 812 812 811 811 811 811 811 811 810 810 810 809 809 809 809 808 808 808 808 806 804 801 800 799 799 798 798 797 797 796 796 796 795 795 794 794 794 793 793 793 792 792 792 791 791 791 791 791 791 791 790 790 791 791 791 791 791 791 790
817 816 816 816 815 814 814 813 813 812 812 812 811 811 811 811 811 811 811 811 811 811 811 811 811 811 811 811 811 811 810 811 811 811 810 810 809 809 809 809 809 808 808 807 807 806 806 804 802 801 799 798 797 797 796 796 796 795 795 794 794 793 793 792 792 792 791 791 791 790 790 790 790 790 789 789 789 789 789 789 789 789 789 789 789 789
815 815 814 814 813 813 812 812 811 811 811 811 810 810 810 810 810 810 810 811 811 810 810 810 810 810 810 810 810 810 810 810 810 810 809 809 809 809 808 808 808 808 807 807 806 806 804 803 802 801 800 798 796 796 796 795 795 794 794 793 793 792 792 791 791 791 790 790 790 789 789 789 789 788 788 788 788 787 787 787 787 787 788 788 788 788
814 814 813 812 812 812 811 811 811 810 810 810 810 810 810 810 810 810 810 810 810 810 810 810 809 809 809 809 809 809 808 808 808 808 808 808 808 808 808 807 807 807 807 806 806 805 804 802 801 801 800 798 796 795 795 794 794 793 793 792 791 791 791 790 790 790 789 789 789 788 788 788 787 787 786 786 786 786 786 786 786 786 786 786 786 786
813 812 812 811 811 811 810 810 810 809 809 809 809 809 809 809 809 809 809 809 809 809 809 809 808 808 808 808 808 807 807 807 807 807 807 807 807 808 807 807 806 806 806 806 805 804 803 802 801 800 799 798 797 795 794 794 793 793 792 791 791 790 790 789 789 789 788 788 788 787 787 786 786 786 785 785 785 784 784 784 784 784 783 783 783 783
812 811 811 811 810 810 809 809 809 809 808 808 808 808 808 808 808 808 808 808 808 808 808 808 807 807 807 807 806 806 806 806 806 806 806 806 806 806 806 806 805 805 805 805 804 804 803 802 801 799 798 797 796 795 794 793 793 792 791 791 790 789 789 788 788 788 787 787 786 786 786 786 785 785 784 783 783 783 782 782 782 781 781 781 781 781
811 810 810 810 809 809 809 808 808 808 808 808 807 807 807 807 807 807 807 807 806 806 806 806 806 806 806 805 805 805 804 804 804 804 804 804 804 804 804 804 804 803 803 803 803 803 802 801 800 799 798 796 795 794 794 793 792 791 791 790 789 789 788 788 787 787 786 786 785 785 785 784 784 783 783 782 781 781 781 780 780 780 779 779 778 778
810 810 809 809 809 808 808 808 807 807 807 807 806 806 806 806 806 806 806 806 805 805 805 805 805 804 804 804 804 803 803 803 802 802 802 802 802 802 802 802 802 802 802 802 801 801 801 800 799 798 797 796 795 794 793 792 792 791 790 789 788 787 787 787 786 786 785 785 784 784 783 783 782 782 781 781 780 780 779 779 778 778 778 777 777 776
809 809 808 808 808 807 807 807 806 806 806 806 806 806 806 805 805 805 805 805 804 804 804 804 803 803 803 802 802 802 801 801 801 801 801 801 801 801 801 801 801 801 801 800 800 800 800 799 798 797 796 796 795 794 793 792 791 791 790 789 788 787 786 786 785 785 784 784 783 783 782 782 781 781 780 780 779 779 778 778 777 776 776 776 776 775
808 808 807 807 807 807 806 806 806 806 805 805 805 805 805 805 804 804 804 804 804 803 803 803 803 802 802 801 801 801 800 800 800 800 800 800 800 800 800 800 799 799 799 799 799 798 798 798 797 796 796 795 794 793 792 791 790 790 789 789 787 786 785 784 784 784 783 782 782 781 781 781 780 780 779 778 778 777 776 776 776 775 775 774 774 773
807 807 806 806 806 806 806 805 805 805 805 804 804 804 804 804 803 803 803 803 803 803 802 802 802 802 801 801 800 800 800 799 799 799 799 799 799 799 799 798 798 798 798 798 797 797 796 796 796 795 795 794 794 792 791 790 789 788 788 787 787 786 784 783 782 782 782 781 781 781 780 780 779 778 777 777 776 776 775 774 774 773 773 772 772 771
806 806 806 805 805 805 805 805 804 804 804 804 803 803 803 803 803 803 803 802 802 802 802 801 801 801 800 800 799 799 799 799 798 798 798 798 798 798 798 797 797 797 797 797 796 796 795 795 794 794 794 793 793 791 790 789 788 787 786 786 786 785 784 782 781 781 781 780 780 779 779 778 778 777 776 775 775 774 773 773 772 771 771 771 770 770
805 804 804 804 804 804 804 804 804 803 803 803 803 802 802 802 802 802 802 801 801 801 801 801 800 800 799 799 799 798 798 798 798 797 797 797 797 797 796 796 796 796 796 795 795 795 794 794 793 793 792 792 791 791 789 788 787 786 785 785 784 784 782 781 781 780 779 778 778 778 777 777 776 776 775 774 773 772 772 771 771 770 769 769 768 768
803 803 803 803 803 803 803 803 803 802 802 802 802 801 801 801 801 801 801 801 801 800 800 800 800 799 799 798 797 797 797 797 797 796 796 796 796 796 796 795 795 795 794 794 793 793 793 792 792 791 791 791 790 789 788 787 786 785 784 783 783 782 781 780 779 778 778 777 776 776 776 776 775 774 773 772 771 771 770 769 769 768 767 767 766 765
802 802 802 802 802 802 802 802 801 801 801 801 801 801 801 800 800 800 800 800 800 799 799 799 799 798 797 797 796 796 796 796 796 796 795 795 795 795 794 794 794 794 793 793 792 791 791 791 790 790 790 789 788 787 786 785 785 784 782 782 781 781 779 778 777 777 776 776 775 775 775 774 774 773 772 771 770 769 768 767 767 766 765 765 764 764
801 801 801 801 801 801 801 801 800 800 800 800 800 799 799 799 799 799 799 799 799 799 798 798 798 797 796 796 796 795 795 795 795 795 794 794 794 793 793 793 792 792 792 791 791 790 790 789 789 788 788 788 786 785 784 783 783 782 781 781 780 779 778 777 776 776 775 775 774 773 773 773 773 772 771 770 768 767 765 765 765 764 764 763 762 761
800 800 800 800 800 799 799 799 799 799 799 798 798 798 798 798 798 798 798 798 798 798 797 797 797 796 796 795 795 794 794 794 794 793 793 793 792 792 792 791 791 791 791 790 789 789 788 787 786 786 786 786 785 783 782 781 781 780 780 779 778 778 776 775 775 774 774 773 772 772 772 772 771 771 770 768 766 765 763 763 762 762 762 761 760 760
799 799 799 798 798 798 798 798 798 797 797 797 797 797 797 797 797 797 796 796 796 796 796 796 796 795 795 794 794 793 793 793 792 792 792 792 791 791 791 791 790 790 790 789 788 787 786 785 784 783 783 782 782 781 780 779 778 778 778 777 777 776 775 774 773 772 772 772 771 771 770 770 770 769 769 767 765 763 761 760 760 759 759 759 758 757
798 797 797 797 797 796 796 796 796 796 796 796 796 796 796 796 795 795 795 795 795 795 795 795 795 794 794 793 792 792 792 792 791 791 791 791 790 790 790 790 789 789 789 788 787 786 785 784 782 781 780 780 780 779 779 778 777 776 776 775 775 774 774 772 771 771 771 770 770 769 769 768 768 767 767 766 764 762 760 758 757 757 757 757 756 755
Wind_Speed
6 6 5 4 4 4 3 1 1 3 4 4 4 3 3 4 4 6 6 7 8 8 8 8 7 7 8 8 9 10 11 12 12 13 13 13 13 13 13 14 14 14 14 14 14 12 10 8 8 8 8 9 9 10 10 10 10 10 10 11 11 12 13 13 13 13 13 13 13 14 14 13 13 13 13 12 11 11 10 10 9 9 9 9 9 9
5 5 5 4 4 4 3 2 0 2 4 5 5 5 4 4 5 5 6 6 7 7 8 9 10 11 11 12 13 14 14 15 16 16 17 17 16 15 14 13 13 13 13 13 11 9 7 7 7 8 8 8 9 9 9 9 9 9 10 11 11 12 12 12 13 13 13 13 13 13 13 13 12 12 12 11 11 11 10 10 10 10 10 10 10 10
5 5 5 5 5 4 4 4 3 2 2 4 5 6 7 7 7 8 8 9 10 10 11 12 13 13 14 14 15 15 15 16 16 16 16 15 14 12 11 11 11 11 10 9 8 7 6 7 7 7 8 8 8 8 9 9 10 11 11 12 12 13 13 13 13 13 13 13 14 14 13 13 12 11 11 11 10 10 10 10 10 10 10 10 11 11
3 4 4 5 5 5 5 5 5 4 4 3 4 5 6 7 8 9 10 10 11 11 12 12 12 12 13 13 13 13 13 13 12 11 10 9 8 8 8 8 8 7 7 6 6 6 6 7 7 7 7 7 8 9 10 11 12 13 13 14 14 14 14 14 14 14 13 13 14 14 14 13 13 12 11 11 11 11 11 11 11 11 11 12 12 12
2 2 3 4 4 5 5 5 5 5 5 4 4 4 5 6 7 7 8 9 9 9 9 9 9 9 9 9 9 9 8 7 6 4 4 4 5 5 6 6 6 6 6 6 6 6 6 6 6 6 7 8 9 10 11 12 12 13 13 14 14 14 14 14 13 13 13 13 14 14 14 14 13 12 11 11 11 11 11 11 11 11 12 12 12 13
2 3 3 4 4 4 5 4 4 4 4 3 3 3 3 4 4 5 5 6 6 5 5 5 5 5 5 5 5 4 4 3 2 1 2 3 4 5 6 6 7 6 6 5 5 5 5 6 6 7 7 8 9 10 11 11 12 12 12 12 12 12 12 12 12 12 12 12 12 12 12 11 11 10 9 9 9 10 10 10 10 10 11 11 12 12
3 4 4 4 4 4 4 4 3 3 2 2 2 1 2 2 2 3 3 3 3 3 3 3 3 3 2 2 2 1 1 1 2 3 4 4 5 5 5 5 5 5 4 4 4 5 5 6 7 7 8 9 10 10 11 11 11 11 11 11 10 10 10 10 10 10 10 10 10 10 10 10 9 9 9 9 9 10 10 10 10 11 11 11 11 12
3 4 4 4 4 4 3 3 3 3 3 3 3 4 4 3 3 3 4 4 3 3 3 3 2 2 1 0 0 0 0 1 1 3 4 5 5 5 5 5 4 4 4 4 5 5 6 7 8 9 10 11 11 12 12 12 12 12 12 12 11 11 11 11 10 10 10 10 9 9 9 9 9 9 10 10 10 10 11 11 11 12 12 12 12 12
4 4 4 4 4 4 4 4 4 4 4 4 4 5 5 4 4 4 4 4 4 4 3 3 2 1 1 0 1 2 2 2 3 3 4 5 6 6 7 7 7 7 6 6 6 7 8 10 10 11 12 13 13 13 13 14 14 14 14 13 13 13 12 12 11 11 11 10 10 9 9 9 9 10 10 11 11 11 12 12 12 13 13 13 13 13
5 5 4 4 4 4 4 4 4 4 4 4 4 4 4 4 4 4 4 3 3 3 2 2 1 1 2 3 4 4 4 4 5 5 5 6 7 7 8 9 10 9 9 9 10 10 11 12 13 14 15 16 16 15 15 15 15 16 16 15 15 14 14 13 13 12 12 12 11 11 11 11 11 11 11 12 12 13 13 13 13 14 14 13 13 13
5 5 4 4 4 4 3 3 3 4 4 4 4 4 4 4 4 4 4 3 3 3 3 3 3 4 4 5 5 5 5 6 6 7 7 7 8 8 9 10 10 11 11 11 12 13 13 14 16 17 18 18 18 17 17 17 17 17 18 17 17 16 15 15 14 14 14 13 13 13 13 13 13 13 14 14 14 14 14 14 14 14 14 14 13 13
4 4 4 4 3 3 3 3 3 3 3 4 4 4 4 4 4 5 5 4 5 5 4 4 4 4 4 5 5 5 5 6 7 7 8 8 9 9 10 10 11 11 12 13 13 14 15 17 18 19 20 20 20 19 19 19 19 19 18 18 18 18 17 17 16 16 16 16 16 15 15 15 15 16 16 15 15 15 15 15 14 14 14 14 13 13
4 3 3 3 3 3 3 4 4 4 4 5 5 4 4 4 5 5 5 5 5 5 5 5 5 4 4 4 4 5 5 6 7 8 9 9 10 10 11 11 12 13 14 15 16 17 18 20 21 21 22 21 21 21 20 20 20 19 19 18 18 17 17 17 17 17 17 17 17 17 17 17 17 17 16 16 15 15 15 14 14 14 14 14 13 13
4 4 4 4 5 5 5 5 6 6 6 6 5 5 5 5 5 5 5 5 5 5 5 5 5 5 5 4 5 5 6 7 8 8 9 10 11 11 12 13 14 15 16 18 19 20 21 21 22 22 21 21 21 20 20 20 19 18 18 17 17 16 16 16 16 16 16 16 16 16 16 16 16 16 15 15 15 15 14 14 14 14 14 13 13 13
6 6 6 6 6 7 7 7 7 7 6 6 6 5 5 5 5 5 5 5 5 5 5 5 5 5 5 5 5 6 6 7 8 9 10 11 11 12 13 15 17 18 20 21 22 22 21 20 20 19 19 19 18 18 18 17 17 16 16 15 15 14 14 14 14 14 14 15 15 15 15 15 15 15 15 14 14 14 14 14 14 14 14 14 13 13
6 7 7 6 7 7 7 7 7 7 6 6 6 6 5 5 5 5 5 5 6 6 6 7 6 5 4 5 5 5 6 7 8 9 11 12 13 14 15 18 20 21 22 22 22 21 19 17 16 16 15 15 15 14 14 14 13 13 13 13 13 13 13 13 13 13 13 13 14 14 14 14 14 14 14 14 14 14 14 14 14 14 13 13 13 13
6 6 6 6 6 6 6 6 6 6 6 6 6 6 5 5 5 5 5 6 6 6 6 6 5 4 4 4 5 5 6 7 9 11 13 15 17 18 18 19 21 22 22 21 19 17 15 13 12 12 12 12 11 11 10 10 10 10 11 11 11 12 12 12 13 13 13 13 13 13 13 13 13 13 13 13 13 13 14 14 14 14 13 13 13 13
5 5 5 5 5 5 5 5 5 6 6 6 6 5 5 5 6 6 6 6 6 6 6 5 4 4 4 5 5 6 7 9 12 14 15 16 17 19 20 19 19 19 19 18 16 14 12 10 10 10 10 10 10 10 10 9 10 10 11 11 12 12 12 13 13 13 13 13 13 13 13 13 13 13 13 14 14 14 14 14 14 14 14 14 13 13
3 3 3 4 4 4 4 4 4 5 5 5 5 5 5 5 5 6 6 6 6 6 5 5 5 5 5 7 8 9 10 11 14 15 15 14 15 16 18 17 16 16 16 15 14 12 10 10 10 10 10 10 11 11 11 11 11 12 12 13 13 13 13 13 14 14 14 14 14 14 14 13 14 14 14 14 14 14 14 14 14 14 14 14 14 14
1 1 2 2 3 3 3 3 4 4 4 4 4 4 4 5 5 6 6 7 7 7 7 6 6 6 6 8 9 10 12 14 15 15 13 13 14 15 16 14 14 14 15 14 13 11 11 11 11 11 11 11 11 12 12 13 13 14 14 14 14 14 14 14 14 14 14 14 14 14 14 14 14 14 14 14 14 14 14 14 14 15 15 15 15 15
1 1 1 1 2 2 3 3 4 4 4 4 4 5 5 6 6 7 8 8 9 9 9 8 7 7 8 9 11 12 14 14 14 13 12 12 13 14 13 12 12 14 15 15 13 12 11 11 11 11 11 11 12 12 13 13 14 15 15 15 15 15 15 15 15 14 14 14 14 14 14 14 14 14 14 14 14 15 15 15 15 15 15 15 15 16
1 1 1 1 1 2 2 3 3 4 4 5 5 6 7 7 8 8 9 9 10 10 10 9 10 11 12 13 13 13 13 13 13 13 12 11 11 12 12 12 13 14 15 15 14 12 12 12 12 12 12 12 12 13 13 14 14 15 15 15 15 15 15 15 14 14 14 14 14 14 14 14 14 14 14 14 14 14 15 15 15 15 15 15 15 16
1 1 0 0 0 1 1 2 3 4 4 5 6 7 7 8 9 9 10 10 10 11 11 12 13 13 14 14 13 12 12 11 12 12 11 9 9 10 12 13 14 15 14 15 14 14 14 14 14 13 13 12 12 12 12 13 13 13 13 13 13 13 13 13 13 12 12 13 13 13 13 13 13 13 14 14 14 14 14 14 14 14 15 15 15 16
0 0 1 1 1 2 2 3 3 4 5 5 6 7 8 9 10 10 11 12 12 13 13 14 14 14 14 13 12 11 10 10 11 11 10 9 9 11 12 13 14 13 13 14 15 16 17 17 16 14 12 10 10 10 11 11 10 10 9 9 8 8 8 8 9 9 10 10 11 11 11 11 12 12 12 12 12 13 13 13 14 14 15 15 16 16
1 1 1 2 2 2 2 2 3 4 5 6 7 8 9 10 11 12 13 13 14 14 14 14 13 12 11 10 9 8 9 9 10 10 10 9 10 11 12 12 13 12 12 14 16 18 18 18 16 13 10 8 7 8 8 8 6 5 4 4 4 4 5 5 6 7 7 8 8 9 9 10 10 11 11 11 12 12 13 13 14 14 15 15 16 17
1 1 1 1 1 2 2 2 3 4 6 7 8 9 11 12 12 13 13 13 13 12 11 11 11 11 10 9 8 7 8 9 10 10 10 9 9 9 10 11 12 13 13 14 16 17 17 16 15 12 8 6 5 6 6 5 4 3 3 3 3 4 5 6 6 7 7 8 8 9 9 10 10 11 11 12 12 13 14 14 14 15 15 16 17 17
2 2 2 3 3 4 5 6 6 7 7 8 8 9 10 12 12 12 12 11 11 10 10 10 10 10 9 8 8 8 8 9 9 10 10 9 9 8 9 10 12 14 14 14 14 14 13 13 12 10 7 5 5 5 4 4 4 4 4 5 6 7 7 8 9 9 9 10 10 11 11 11 11 12 12 13 13 13 14 14 15 15 15 16 17 17
4 5 5 6 6 7 8 9 9 10 10 10 9 10 10 12 11 11 11 12 12 10 9 10 10 9 8 8 8 9 9 8 9 10 11 9 8 8 9 11 12 13 14 13 13 13 12 11 11 9 6 5 4 4 4 4 5 5 6 7 8 9 10 11 11 12 12 12 12 13 13 13 13 13 13 13 13 14 14 14 14 15 15 16 16 16
6 6 7 7 8 8 9 10 11 11 11 12 12 11 12 12 13 13 13 14 13 11 9 10 10 9 9 9 10 10 9 8 9 9 9 8 7 8 9 10 11 12 12 12 12 12 10 10 9 8 5 4 3 4 5 6 7 8 10 11 12 12 13 14 14 15 15 15 15 15 15 14 14 14 14 14 14 14 14 14 14 14 15 15 15 15
6 6 7 8 9 9 10 11 12 13 13 13 13 14 13 14 14 14 14 13 11 10 9 9 9 9 9 9 8 8 7 7 6 6 6 5 6 7 9 9 10 10 10 10 10 9 8 9 9 7 5 6 7 8 9 11 12 13 13 13 13 13 13 14 15 16 16 16 16 16 16 16 15 15 15 14 14 14 14 14 14 14 14 14 15 15
7 8 8 9 10 11 12 13 14 15 15 15 15 15 15 14 13 12 11 10 10 10 10 9 9 8 8 6 5 3 4 4 4 4 5 5 6 7 8 8 9 9 9 8 7 6 6 7 8 8 9 11 13 15 16 16 16 14 13 12 11 10 10 10 11 13 14 15 15 16 16 16 16 16 16 15 15 15 15 15 14 14 14 14 15 15
9 10 10 11 12 13 14 15 15 16 16 16 16 15 14 12 10 9 8 8 9 10 10 10 10 10 9 7 5 4 4 5 6 7 7 7 7 8 8 8 8 8 8 7 6 5 3 6 9 11 12 13 14 16 17 17 16 15 13 13 12 10 9 9 9 10 11 12 13 14 15 15 16 16 16 16 16 16 15 15 14 14 14 14 15 15
11 12 12 13 14 14 15 15 15 15 15 14 13 12 11 9 8 7 7 7 7 7 8 9 9 9 9 8 7 7 7 7 7 7 8 8 7 7 8 7 8 8 9 8 8 7 7 9 12 14 14 13 13 13 14 14 15 14 14 14 14 14 13 12 12 12 12 12 12 12 13 13 13 13 14 14 14 14 14 14 14 13 13 13 14 15
12 13 13 14 14 14 14 14 13 13 12 10 9 8 7 6 6 6 6 6 6 6 6 6 6 6 6 6 7 7 7 6 5 5 6 6 6 7 8 8 9 9 9 9 9 9 10 12 13 14 14 14 13 12 12 13 13 14 14 14 15 16 16 15 14 13 12 11 11 10 10 10 10 10 10 11 11 12 12 12 12 12 12 13 14 14
14 14 14 14 13 12 11 10 9 8 7 6 6 5 5 5 5 5 5 5 6 6 6 6 5 5 6 6 6 7 7 7 7 7 7 8 8 8 9 9 9 9 9 9 9 10 10 12 13 13 13 14 14 12 11 12 13 14 14 15 16 17 17 15 14 13 11 11 10 10 10 9 9 9 9 10 10 10 11 11 11 12 12 13 14 14
14 14 13 12 10 9 8 7 6 5 4 4 4 5 5 6 6 6 6 6 6 7 7 7 7 7 8 8 9 9 9 10 11 11 11 11 11 10 10 10 10 9 9 10 10 10 11 12 13 14 14 14 13 12 11 11 13 14 15 16 17 17 16 14 12 11 11 11 12 12 12 11 11 11 10 10 10 10 10 11 11 12 13 13 14 15
13 11 10 9 7 6 6 5 4 3 3 3 4 5 6 7 7 7 7 7 8 8 9 9 10 10 10 11 12 13 14 14 14 14 14 14 14 13 12 12 12 11 10 11 11 12 12 12 13 13 13 12 11 11 11 12 13 13 13 14 15 15 15 13 12 11 12 13 13 13 13 13 13 12 12 11 11 11 12 12 12 13 14 14 15 16
10 8 8 7 6 5 5 4 3 3 3 3 5 6 7 8 8 8 8 9 9 10 11 12 12 13 13 14 15 16 16 17 17 17 17 17 17 16 14 14 14 13 13 12 12 12 12 12 12 12 11 12 12 12 13 13 13 12 13 13 13 13 13 12 12 13 13 14 14 14 14 13 13 13 13 13 13 14 14 14 14 14 14 15 16 17
8 7 6 6 5 5 5 4 4 4 4 4 5 6 7 8 9 9 10 10 11 12 13 14 14 15 16 16 17 17 17 17 17 16 16 16 16 16 15 15 14 14 13 13 13 13 12 12 11 11 11 12 12 13 13 13 12 13 14 14 13 12 11 11 12 14 14 14 14 14 13 12 12 13 15 15 15 16 16 16 15 15 14 15 15 16
7 7 6 6 6 6 5 5 5 5 5 5 5 6 7 8 8 9 10 11 12 12 13 13 13 13 14 14 14 14 13 13 13 13 13 12 12 13 14 14 14 13 13 13 13 13 13 13 13 13 13 12 13 13 13 13 13 13 13 13 12 11 10 11 12 13 13 13 13 13 13 13 13 14 15 15 15 15 15 15 15 15 15 14 15 16
8 8 7 7 6 6 6 6 6 5 5 5 6 6 6 7 7 8 8 8 8 7 7 7 8 8 8 8 8 8 8 9 9 9 9 9 9 10 11 12 12 12 11 11 11 12 12 12 13 13 13 13 13 14 14 14 14 13 13 12 13 13 13 13 12 12 12 12 13 14 14 14 14 14 13 13 13 13 14 14 15 15 15 15 14 14
9 9 8 8 7 7 7 7 6 5 5 6 6 6 6 6 6 6 6 6 5 4 5 6 7 8 8 9 8 7 6 5 5 5 5 6 6 6 8 9 10 10 11 11 11 12 12 12 12 13 12 12 13 13 14 14 14 13 13 13 14 15 15 14 12 11 12 13 15 15 15 13 12 12 13 13 13 14 14 14 15 15 15 14 14 14
10 10 10 9 8 8 7 7 6 6 6 6 6 6 6 5 5 5 5 5 5 5 5 6 7 8 8 9 8 8 6 5 4 4 4 5 5 5 6 7 8 9 10 11 11 12 12 12 13 13 13 12 12 13 14 15 15 14 13 13 13 13 12 12 11 11 12 13 13 13 12 12 12 13 13 14 14 14 14 14 15 15 15 15 15 15
12 11 11 10 9 8 8 7 6 6 6 6 6 6 6 5 5 5 6 6 6 6 6 7 8 8 8 8 7 7 6 5 5 5 5 5 6 6 7 8 8 9 10 12 12 12 12 12 12 12 12 12 13 14 15 15 15 15 14 14 13 13 13 14 14 14 14 13 13 13 12 13 13 14 14 14 15 15 14 14 14 14 15 15 15 16
12 12 12 11 10 9 8 7 6 6 6 5 6 6 6 6 5 6 7 7 7 7 8 8 8 7 6 6 6 6 6 6 6 6 6 6 6 7 7 8 9 9 10 12 13 13 12 12 12 12 12 12 13 14 15 15 16 16 16 15 14 14 16 16 16 16 15 15 14 14 14 14 14 15 15 15 15 14 14 14 15 15 15 15 15 16
12 12 11 11 10 9 8 8 7 7 6 6 7 7 7 7 7 7 7 8 8 8 8 8 7 6 6 6 6 6 6 6 6 7 7 6 6 6 7 8 9 10 11 12 13 14 15 14 13 13 13 13 14 15 16 16 16 16 16 16 15 15 16 16 16 16 15 15 15 15 15 15 14 14 14 15 15 16 15 15 15 15 15 15 16 16
12 11 11 11 11 10 10 9 8 8 8 8 8 8 8 8 8 8 8 8 8 8 8 7 7 7 7 7 7 6 6 6 6 7 7 8 8 7 7 8 9 10 12 13 14 15 16 16 16 15 14 14 14 15 16 16 16 16 16 16 15 15 15 16 16 15 15 15 16 16 16 15 15 14 15 16 16 17 16 16 15 15 15 16 16 17
11 11 11 11 11 11 10 10 9 9 9 9 9 9 9 9 8 8 8 8 7 7 6 6 7 7 8 8 8 7 7 7 7 7 7 8 9 9 9 9 9 10 11 13 14 15 16 18 18 18 18 16 15 16 16 16 16 16 15 15 15 15 15 16 16 16 15 16 17 18 18 16 15 14 15 17 18 19 18 17 17 16 16 16 16 17
10 10 10 11 11 11 11 11 11 10 10 10 10 10 11 10 9 9 8 9 9 9 8 7 7 8 8 8 8 8 8 8 8 8 8 8 8 8 9 9 10 10 11 13 14 15 16 18 19 19 19 19 18 18 18 17 16 16 15 15 15 15 16 16 16 16 15 16 17 18 18 16 15 15 15 17 19 20 20 20 19 18 17 16 17 17
10 10 10 11 11 12 12 12 12 12 11 11 11 11 11 11 11 11 11 11 10 9 8 8 8 8 8 8 8 8 8 8 9 9 8 8 8 8 8 8 8 9 9 10 11 11 12 14 15 16 17 19 20 20 19 18 17 16 15 15 15 15 16 16 17 16 16 16 16 17 17 17 17 16 16 17 19 21 21 21 20 19 17 16 16 17
10 10 10 11 11 12 13 13 13 13 13 12 11 10 10 9 9 10 11 10 9 9 9 9 9 9 9 9 9 9 9 9 9 9 9 8 8 8 8 8 8 8 8 8 9 9 9 10 10 12 14 15 17 18 19 19 17 16 15 15 15 15 15 16 17 17 17 17 17 17 17 17 17 16 16 16 18 20 21 21 20 19 17 15 15 16
Wind_Direction
330 335 339 340 348 1 20 29 243 254 265 267 263 255 249 239 232 231 232 232 230 229 230 233 240 248 255 259 260 261 261 261 261 260 261 263 267 273 276 277 276 273 268 262 258 256 256 259 263 266 268 269 267 264 264 265 269 273 275 276 276 274 272 271 270 270 269 269 268 268 267 266 265 264 264 266 268 270 271 272 271 269 268 267 268 269
342 348 354 356 356 359 9 24 328 254 263 270 271 270 267 258 252 251 252 254 255 258 260 264 269 274 278 281 281 281 279 278 277 276 275 275 276 276 275 273 270 266 262 258 255 255 258 263 267 267 266 265 264 262 263 267 272 277 281 282 282 281 279 276 273 271 270 269 268 267 268 268 268 267 267 269 271 272 274 274 272 271 270 269 269 270
350 354 357 1 358 354 355 6 11 347 290 282 281 279 278 277 277 275 276 277 278 278 279 280 281 282 282 283 283 284 283 283 283 283 282 281 279 275 270 266 262 260 259 257 257 259 264 266 266 266 267 269 270 271 273 274 276 278 280 280 279 279 279 278 276 273 272 270 268 266 268 270 271 271 271 273 274 275 276 277 276 275 274 273 272 272
351 354 352 358 359 356 355 359 2 1 350 324 305 296 290 287 285 284 283 284 283 284 283 283 283 283 283 282 282 282 283 283 284 286 288 288 285 279 273 270 269 268 267 267 267 268 267 268 272 278 283 286 286 284 282 280 278 277 276 276 274 274 274 274 273 273 272 270 267 264 265 265 266 267 269 270 270 272 273 275 274 273 272 271 270 270
1 1 356 359 356 353 358 358 357 355 352 342 328 315 307 301 296 293 290 288 287 287 287 286 287 288 288 288 287 286 284 284 285 291 295 295 292 288 285 286 286 284 281 278 274 272 272 276 283 287 290 288 286 283 281 279 277 276 275 274 272 271 270 269 268 266 265 264 262 261 261 260 260 261 264 264 264 265 268 270 270 268 268 266 265 265
10 13 13 11 2 356 1 359 355 350 347 341 332 322 315 311 308 305 304 302 300 298 299 300 301 301 300 298 295 291 283 272 256 244 253 262 271 278 284 288 286 283 279 276 274 273 274 277 280 282 284 283 281 280 279 279 279 278 277 276 272 269 267 266 263 261 259 259 258 257 257 257 257 257 259 262 263 264 267 272 274 274 273 270 265 262
19 20 27 26 22 16 11 6 359 355 356 9 18 15 6 355 347 342 339 339 338 337 337 336 331 325 318 308 295 282 266 219 210 220 228 233 245 261 275 281 280 275 269 269 271 275 276 278 280 282 283 283 283 282 280 280 278 277 276 274 272 270 267 266 264 261 259 259 257 255 255 254 254 256 258 260 263 265 268 271 274 276 277 277 273 267
40 33 38 41 38 35 31 24 19 19 25 47 60 63 58 48 38 33 28 25 24 21 18 18 20 25 41 93 187 200 230 263 250 244 240 236 235 240 248 249 246 245 250 260 269 275 276 277 278 279 280 279 280 279 277 276 274 271 270 267 266 264 263 263 262 261 259 258 258 258 257 255 255 256 259 261 264 266 269 270 271 272 272 273 272 270
61 51 51 55 53 49 43 39 36 36 38 49 59 64 61 54 46 40 38 37 36 36 35 38 47 64 91 203 237 252 265 272 269 261 256 249 244 240 238 238 238 239 245 254 262 267 269 271 273 275 277 278 278 277 275 273 269 267 264 262 260 260 259 258 258 258 257 257 258 260 261 259 259 259 260 262 264 266 268 269 270 270 269 268 268 267
70 61 58 59 60 56 51 46 44 42 41 44 49 53 53 48 39 31 29 27 26 22 19 10 345 298 271 267 266 266 265 262 254 249 249 250 248 246 245 244 245 247 251 257 260 264 268 272 275 278 280 281 280 278 275 271 267 263 261 259 258 257 257 257 257 257 258 258 259 261 262 262 262 263 264 265 266 268 268 268 268 268 267 266 265 263
73 66 62 57 54 52 49 45 40 38 36 33 36 38 37 29 21 11 2 354 349 343 330 316 304 293 283 275 270 266 264 255 247 244 247 251 252 253 254 254 255 256 260 263 267 270 274 278 282 284 285 284 282 279 274 270 266 263 261 259 258 257 258 258 258 259 259 260 261 262 262 263 264 265 267 268 269 270 269 268 267 265 264 263 262 260
78 72 66 58 52 46 40 34 29 24 18 17 22 27 24 16 7 359 350 340 336 334 326 316 308 301 295 287 278 270 265 254 243 240 244 248 253 257 259 261 263 265 267 270 273 277 282 286 288 289 288 286 283 279 274 271 269 267 266 264 263 262 262 262 262 261 262 262 263 264 265 266 267 268 269 270 270 270 268 267 265 262 260 259 258 258
83 81 76 67 56 46 37 32 26 21 19 19 20 17 9 8 4 358 351 345 342 340 335 329 321 313 305 296 285 274 263 252 245 244 245 249 254 259 263 267 270 272 276 279 281 285 289 292 292 291 289 287 283 279 275 273 272 272 272 272 271 270 269 268 267 266 266 266 266 266 266 267 268 268 269 269 268 267 266 264 261 259 257 256 255 254
74 77 79 72 62 52 47 44 43 39 34 32 29 23 18 15 11 6 1 357 353 348 342 340 332 320 309 297 285 274 263 254 250 250 252 257 263 269 274 277 280 282 286 289 291 294 296 296 295 292 289 286 282 279 276 275 274 275 276 276 276 276 275 274 272 271 270 269 268 268 267 267 267 267 267 266 265 263 262 260 258 256 254 253 253 252
67 70 72 68 62 59 56 54 53 52 47 43 39 33 28 26 24 20 20 18 10 359 350 347 337 322 306 293 285 277 269 261 257 258 261 265 271 279 285 289 291 292 294 297 299 301 301 299 296 292 288 284 281 278 276 275 275 276 276 277 278 278 278 277 275 274 272 270 269 268 267 266 265 264 263 262 261 260 258 257 255 253 253 252 251 251
67 72 76 73 68 64 61 58 57 56 52 47 44 41 40 38 31 24 21 19 11 4 2 360 350 331 310 300 293 285 278 273 273 276 278 279 282 286 292 297 299 300 300 302 304 306 305 301 295 290 287 284 281 278 276 275 275 276 276 278 278 277 276 274 273 272 270 269 267 266 265 264 263 261 260 259 257 256 255 254 253 252 251 251 251 251
70 74 78 78 75 69 62 56 54 53 49 47 43 39 35 31 26 20 16 11 8 7 8 6 357 340 325 316 310 303 295 294 294 295 295 294 292 293 296 300 302 303 303 305 307 308 307 302 295 289 286 283 279 276 275 276 277 277 278 278 276 274 271 270 269 268 267 266 266 264 263 262 261 259 258 257 255 254 254 253 252 252 252 253 253 253
71 74 77 80 79 72 60 54 50 47 43 43 39 33 27 24 20 16 13 9 8 9 6 2 350 330 314 312 314 313 308 306 305 306 305 302 299 298 300 303 304 304 305 307 309 310 307 301 294 289 285 280 275 270 268 270 274 276 276 275 273 272 271 269 267 266 265 265 265 265 263 262 260 259 258 257 256 255 255 255 254 254 254 255 255 255
72 68 75 82 79 70 59 53 48 45 44 42 37 31 26 20 15 11 6 3 1 359 354 346 332 314 303 303 306 309 309 308 308 309 308 303 301 303 305 307 306 304 305 307 310 311 308 301 294 288 283 278 273 269 265 264 267 270 271 271 271 271 271 270 268 266 265 264 264 265 264 263 262 260 259 259 258 257 257 257 256 256 256 256 256 257
76 69 67 68 69 68 61 51 46 42 38 33 28 24 16 8 3 359 355 351 348 344 339 333 324 311 304 302 305 307 309 309 310 309 306 301 300 302 307 307 305 303 304 307 310 313 310 304 297 291 286 282 278 274 270 267 265 265 266 268 269 269 269 269 269 268 267 265 264 264 264 263 263 262 261 260 259 259 258 258 258 257 257 258 258 258
146 131 73 47 59 68 65 53 39 30 22 14 8 4 358 352 348 344 340 336 332 329 325 321 314 307 304 303 304 304 306 308 309 308 304 301 299 302 306 308 307 306 306 308 312 315 313 308 303 299 296 292 287 282 276 271 268 266 265 266 267 267 267 266 266 267 267 266 264 263 263 263 262 262 261 261 260 260 259 259 259 259 259 259 259 259
155 149 125 81 63 60 51 35 21 8 357 351 351 350 345 338 334 329 324 321 317 313 310 305 302 300 299 299 299 300 301 303 304 305 304 301 298 300 307 311 310 309 309 311 316 319 316 312 309 307 305 300 293 286 279 274 271 268 268 267 267 268 267 266 266 265 266 266 265 264 263 263 262 262 262 261 261 261 260 260 260 260 260 260 260 260
159 149 127 66 14 344 335 340 339 333 328 329 330 328 324 322 318 315 311 308 304 301 298 297 297 296 295 294 294 296 296 296 298 301 303 298 294 299 308 312 313 312 310 314 320 322 319 317 316 315 312 305 295 285 279 274 272 272 272 272 273 272 272 270 269 269 268 268 267 266 265 264 264 263 263 262 262 261 261 261 261 261 261 261 261 261
230 237 264 282 274 273 276 290 303 310 313 316 314 310 308 306 304 302 300 298 295 294 294 295 294 293 291 291 290 290 289 289 293 297 298 293 293 298 306 312 314 313 309 315 320 322 321 322 324 324 320 308 294 283 276 275 276 280 284 287 287 286 283 280 278 275 271 269 267 265 264 263 262 261 261 261 261 261 261 261 262 263 263 263 263 264
244 247 252 256 258 262 268 286 305 316 320 322 317 312 307 303 299 295 293 291 290 290 290 291 290 289 288 287 285 284 283 284 289 293 292 292 294 298 305 312 314 313 310 313 318 321 323 325 329 331 327 313 294 282 277 275 281 294 304 309 307 301 291 283 277 271 266 263 262 261 261 260 260 260 262 262 263 264 264 265 266 267 268 268 268 268
230 236 239 242 252 261 271 283 298 309 316 321 323 320 313 306 302 297 293 289 288 288 288 287 286 285 285 284 282 280 281 284 288 290 289 291 296 300 306 313 316 315 311 312 316 321 322 324 328 332 330 316 297 285 279 273 271 283 300 305 298 287 278 270 264 260 258 260 261 261 263 265 265 266 268 269 269 269 269 270 272 272 272 272 272 271
240 248 253 257 262 268 275 279 282 288 295 300 306 310 310 307 304 300 294 289 286 285 284 283 283 284 284 282 280 281 284 286 288 289 290 290 293 297 303 312 316 317 314 312 313 316 318 320 323 326 326 314 298 288 281 269 261 263 276 282 280 276 271 266 263 261 260 261 262 263 265 268 270 271 273 273 274 274 274 274 275 275 275 275 274 273
258 264 265 267 269 273 277 280 282 283 286 287 291 296 300 300 298 292 284 285 285 283 277 276 278 281 283 283 284 286 287 286 284 286 290 290 288 290 299 309 315 317 316 313 312 313 315 319 324 327 322 309 297 288 279 273 269 270 276 276 275 273 270 268 266 264 264 264 264 265 266 269 271 273 274 275 275 276 276 276 276 277 277 276 275 273
264 268 270 273 277 281 283 284 284 285 287 291 295 299 299 296 292 287 285 287 286 280 271 269 271 274 279 284 289 290 287 282 279 283 289 289 286 289 300 309 315 318 320 318 316 315 314 320 327 330 323 309 295 287 284 286 285 284 283 280 277 274 272 270 268 267 267 267 267 268 269 270 272 273 274 275 275 275 276 276 277 277 277 275 274 272
274 277 279 283 285 286 288 289 290 293 296 300 303 304 301 296 290 287 287 285 281 273 264 264 267 270 277 285 290 291 285 280 278 283 292 293 291 295 305 309 313 318 324 326 323 319 315 318 323 327 322 311 303 298 296 298 298 296 293 288 282 278 274 271 269 268 268 268 268 269 269 270 271 272 273 273 273 273 274 274 275 275 275 274 272 271
284 285 285 287 287 288 289 291 294 296 299 301 302 302 299 294 288 283 280 276 273 269 264 263 264 266 270 278 284 286 284 289 291 295 303 300 295 297 304 306 308 314 323 329 327 321 316 315 317 319 317 311 308 306 307 309 311 311 310 307 300 293 285 280 276 272 270 268 268 267 267 267 268 268 269 269 269 269 270 271 271 272 273 273 272 271
285 286 287 287 287 288 289 291 292 294 295 297 297 296 294 290 283 277 273 270 268 267 266 265 266 266 263 261 258 261 273 288 294 299 302 296 291 293 297 300 302 307 313 317 312 305 304 306 308 310 312 310 308 308 311 315 319 322 324 322 319 316 311 306 298 291 284 278 273 269 267 266 266 266 266 266 266 266 266 267 268 269 271 271 270 270
285 287 288 288 289 290 290 291 292 293 294 294 293 290 287 282 276 270 266 266 265 265 265 266 266 265 262 256 254 259 268 278 289 297 299 293 289 290 294 296 298 302 304 303 297 288 283 289 298 304 306 306 305 305 308 312 316 319 320 320 318 317 318 317 314 308 302 294 286 279 274 270 268 267 266 266 265 265 265 264 264 265 267 268 269 269
290 292 293 294 294 295 295 295 296 295 295 292 287 281 274 267 261 259 259 261 262 262 262 261 260 261 262 258 258 262 266 270 277 283 284 288 289 290 293 294 295 297 299 298 295 290 286 288 294 300 304 305 304 303 303 306 309 312 313 313 313 314 316 318 318 315 312 307 301 295 290 284 279 274 271 269 268 266 264 263 261 260 263 266 267 269
297 299 299 300 300 301 302 302 302 299 293 283 272 260 250 244 243 245 249 254 258 260 259 257 256 256 260 261 264 266 266 264 260 259 262 275 283 288 291 290 290 293 294 293 293 293 291 291 293 297 301 304 304 303 301 304 307 308 309 309 310 312 315 318 319 319 317 315 312 310 307 303 296 290 284 279 275 272 269 265 263 263 263 264 264 266
300 301 302 303 304 306 309 310 308 302 284 262 245 235 230 231 235 240 244 250 255 259 262 262 261 260 260 262 264 266 266 265 262 261 263 268 275 282 286 284 284 286 287 288 288 289 291 292 293 295 297 299 301 302 303 306 308 309 308 309 310 313 316 320 321 321 319 317 315 314 314 312 308 302 296 290 286 281 276 272 269 267 265 262 261 260
299 299 301 303 307 311 316 317 313 301 274 243 231 228 228 232 238 244 249 251 254 258 261 264 265 264 264 265 266 268 268 269 269 268 268 269 271 274 276 276 277 277 278 280 282 285 288 291 293 294 293 292 294 298 304 308 310 309 308 308 309 312 316 319 321 320 317 314 313 313 314 314 312 309 304 301 297 291 286 279 274 270 267 264 261 259
296 298 300 305 309 314 317 317 311 298 274 250 238 235 234 237 242 248 253 255 257 258 260 261 263 264 265 267 268 269 271 272 273 273 272 272 272 271 269 270 272 272 272 272 276 280 283 286 289 291 291 290 290 293 299 305 307 307 307 307 307 307 309 312 313 313 312 310 310 310 311 310 308 307 306 305 303 299 294 290 285 280 276 272 267 261
294 296 300 304 308 311 312 310 306 296 283 268 256 248 245 246 249 253 257 260 262 264 264 266 266 267 267 267 268 270 271 273 274 273 273 272 270 268 267 267 268 269 269 269 270 272 274 276 279 282 287 290 293 295 297 300 302 304 307 309 307 304 303 305 306 307 306 307 307 307 307 303 300 300 303 305 304 301 298 296 295 293 291 288 282 274
290 293 298 302 304 306 306 305 303 297 288 278 268 261 259 258 261 264 266 268 269 270 271 272 272 271 270 270 270 272 273 273 273 272 270 268 267 265 265 265 266 267 269 268 268 267 267 268 271 274 278 284 289 293 295 296 297 301 306 308 306 303 303 302 301 300 300 301 302 302 302 299 298 299 300 301 301 298 296 296 296 297 297 293 288 284
290 292 297 300 302 303 302 301 298 293 288 280 274 269 268 271 274 276 278 280 280 283 289 289 289 290 290 288 285 282 279 276 273 271 269 266 263 262 262 264 265 266 266 266 265 263 262 264 267 271 274 278 283 287 289 291 293 297 300 299 298 298 299 299 296 294 293 295 297 298 299 299 298 297 296 294 293 292 291 291 291 292 292 289 284 280
290 292 296 298 298 296 296 296 292 285 278 276 274 274 276 280 284 286 289 290 295 302 308 305 304 302 299 299 303 305 299 291 284 279 276 273 270 266 264 264 266 267 266 264 263 262 262 263 265 268 271 276 280 284 286 288 290 292 292 292 295 299 300 298 295 294 293 295 298 299 298 296 294 293 293 291 290 289 287 286 285 285 284 280 276 273
291 292 295 295 294 292 291 289 282 272 268 270 274 279 284 285 286 287 288 288 295 303 306 304 300 296 294 295 300 306 309 311 308 300 295 294 289 283 276 271 270 268 266 264 262 263 263 263 264 265 269 273 276 280 284 287 289 290 288 288 293 297 298 296 296 296 296 295 295 294 294 292 292 293 293 291 289 287 286 284 284 281 276 275 273 270
290 291 293 292 290 287 285 280 272 265 264 268 273 279 286 286 283 281 282 284 289 294 295 296 296 295 293 291 292 295 299 311 311 302 299 297 292 287 282 278 274 270 267 263 261 263 266 266 265 265 268 270 273 276 280 283 286 287 287 287 287 286 285 288 292 295 294 292 290 290 290 292 294 295 294 292 290 288 286 285 283 279 276 273 271 270
290 290 290 288 283 277 271 268 267 265 263 263 267 274 281 281 278 277 280 285 289 290 288 289 292 292 286 283 284 288 292 299 304 305 302 297 292 289 286 283 280 276 272 267 264 263 264 265 268 270 271 271 271 272 275 278 281 284 285 285 283 281 280 282 286 289 289 290 289 289 292 295 297 297 295 293 291 288 286 285 283 281 277 273 270 269
287 287 286 282 277 268 261 262 263 263 263 264 268 272 274 274 273 275 279 286 290 289 286 286 284 279 275 276 280 284 287 289 292 297 302 302 298 291 287 284 282 280 277 273 270 268 265 264 266 270 273 272 272 271 271 273 276 279 282 283 282 281 282 282 282 283 284 286 287 289 292 295 297 295 293 291 291 290 286 283 281 279 277 274 272 269
284 284 283 280 275 269 263 261 259 259 260 265 268 270 268 267 270 274 279 283 286 287 285 281 275 269 268 271 275 279 284 287 288 289 291 296 298 294 286 282 280 279 278 277 275 272 269 268 267 267 268 270 271 272 271 270 271 273 276 279 280 280 280 280 280 280 281 282 284 286 291 293 294 292 290 291 291 290 288 285 281 278 277 275 273 271
284 284 283 282 280 275 270 266 262 260 261 264 267 269 267 263 266 272 277 277 277 277 276 274 270 268 268 270 272 275 279 282 285 287 287 289 292 293 290 286 283 280 279 280 278 276 274 273 271 268 264 262 264 268 271 270 269 269 271 273 275 276 276 278 279 280 280 280 282 285 287 287 286 286 289 291 292 291 288 286 283 280 278 276 274 272
284 284 283 282 281 279 276 272 269 265 264 264 265 268 269 264 262 263 264 267 270 273 272 271 270 271 272 272 273 275 277 279 281 283 285 287 288 289 289 289 289 288 285 284 282 280 279 276 272 267 261 257 257 261 266 268 268 269 269 269 269 271 273 276 279 280 280 281 282 284 285 282 280 280 283 286 288 288 288 287 285 283 280 277 274 272
284 284 283 281 279 277 274 272 270 266 264 263 264 266 269 268 264 261 262 264 267 268 267 266 267 270 272 273 276 277 278 278 279 281 283 286 288 288 286 286 286 286 286 287 285 283 282 281 277 271 264 258 255 255 258 262 266 268 268 266 266 267 269 273 277 279 279 280 282 282 281 279 278 278 278 279 282 285 287 286 285 283 281 279 275 272
282 283 283 282 280 278 275 272 269 266 264 262 262 263 263 264 264 263 263 263 263 262 262 262 263 265 269 273 276 277 276 276 276 279 281 284 286 286 285 285 285 286 288 289 290 290 290 290 288 282 275 265 258 255 255 256 261 266 267 266 266 267 267 270 275 278 279 280 281 282 281 279 278 276 274 273 278 282 285 285 285 284 283 281 278 276